TimeCDT,TemperatureF,Dew PointF,Humidity,Sea Level PressureIn,VisibilityMPH,Wind Direction,Wind SpeedMPH,Gust SpeedMPH,PrecipitationIn,Events,Conditions,WindDirDegrees,DateUTC
12:55 AM,82.9,68.0,60,29.88,10.0,SSE,16.1,25.3,N/A,,Clear,160,2013-07-13 05:55:00
1:55 AM,82.0,68.0,62,29.88,10.0,South,15.0,21.9,N/A,,Clear,170,2013-07-13 06:55:00
2:55 AM,81.0,68.0,65,29.89,10.0,South,12.7,-,N/A,,Clear,170,2013-07-13 07:55:00
3:55 AM,80.1,68.0,67,29.89,10.0,SSE,11.5,-,N/A,,Clear,160,2013-07-13 08:55:00
4:55 AM,78.1,68.0,71,29.88,10.0,SSE,9.2,-,N/A,,Scattered Clouds,160,2013-07-13 09:55:00
5:55 AM,77.0,68.0,74,29.90,10.0,SSE,8.1,-,N/A,,Partly Cloudy,150,2013-07-13 10:55:00
6:55 AM,75.9,68.0,76,29.91,10.0,SSE,8.1,-,N/A,,Scattered Clouds,150,2013-07-13 11:55:00
7:55 AM,79.0,69.1,72,29.90,10.0,SSE,15.0,-,N/A,,Partly Cloudy,150,2013-07-13 12:55:00
8:55 AM,79.0,68.0,69,29.90,10.0,SSE,13.8,24.2,N/A,,Clear,160,2013-07-13 13:55:00
9:55 AM,82.0,68.0,62,29.91,10.0,SSE,18.4,24.2,N/A,,Clear,160,2013-07-13 14:55:00
10:55 AM,84.0,69.1,61,29.91,10.0,South,11.5,-,N/A,,Mostly Cloudy,170,2013-07-13 15:55:00
11:55 AM,87.1,69.1,55,29.91,10.0,South,16.1,24.2,N/A,,Clear,170,2013-07-13 16:55:00
12:55 PM,88.0,70.0,55,29.90,10.0,SSE,16.1,23.0,N/A,,Partly Cloudy,150,2013-07-13 17:55:00
1:55 PM,88.0,70.0,55,29.89,10.0,SE,16.1,-,N/A,,Scattered Clouds,140,2013-07-13 18:55:00
2:55 PM,93.0,71.1,49,29.87,10.0,SE,20.7,27.6,N/A,,Clear,140,2013-07-13 19:55:00
3:55 PM,95.0,70.0,44,29.85,10.0,SSE,17.3,32.2,N/A,,Clear,160,2013-07-13 20:55:00
4:55 PM,96.1,69.1,41,29.83,10.0,SSE,17.3,26.5,N/A,,Clear,150,2013-07-13 21:55:00
5:55 PM,93.9,69.1,44,29.83,10.0,SE,21.9,26.5,N/A,,Clear,140,2013-07-13 22:55:00
6:55 PM,91.9,69.1,47,29.82,10.0,SE,16.1,25.3,N/A,,Clear,130,2013-07-13 23:55:00
7:55 PM,90.0,68.0,48,29.82,10.0,SE,16.1,24.2,N/A,,Clear,130,2013-07-14 00:55:00
8:55 PM,88.0,66.9,49,29.84,10.0,SE,16.1,21.9,N/A,,Clear,140,2013-07-14 01:55:00
9:55 PM,84.0,70.0,63,29.86,10.0,SE,16.1,24.2,N/A,,Clear,130,2013-07-14 02:55:00
10:55 PM,82.0,69.1,65,29.87,10.0,SE,13.8,-,N/A,,Clear,140,2013-07-14 03:55:00
11:55 PM,81.0,69.1,67,29.88,10.0,SE,12.7,-,N/A,,Clear,130,2013-07-14 04:55:00